This is the latest recevied weather packets stored in our database for station/object KG7MRB. If no packets are shown the sender has not sent any weather packets the latest 10 day(s).
| Time | Temp. | Humidity | Pressure | Rain* | Wind** | Luminosity | Snow |
|---|---|---|---|---|---|---|---|
| 1777930387 | 26.67° C | 41% | 1027.7 hPa | 0 mm | - | 651 W/m² | - |
| 1777930085 | 26.67° C | 42% | 1027.9 hPa | 0 mm | - | 657 W/m² | - |
| 1777929780 | 26.67° C | 39% | 1027.8 hPa | 0 mm | - | 661 W/m² | - |
| 1777929478 | 26.67° C | 40% | 1027.7 hPa | 0 mm | - | 667 W/m² | - |
| 1777929168 | 27.22° C | 39% | 1027.9 hPa | 0 mm | - | 667 W/m² | - |
| 1777928866 | 27.78° C | 40% | 1027.7 hPa | 0 mm | - | 671 W/m² | - |
| 1777928563 | 27.22° C | 37% | 1027.8 hPa | 0 mm | - | 677 W/m² | - |
| 1777928260 | 27.78° C | 38% | 1027.7 hPa | 0 mm | - | 681 W/m² | - |
| 1777927958 | 27.22° C | 38% | 1027.8 hPa | 0 mm | - | 685 W/m² | - |
| 1777927656 | 27.22° C | 38% | 1027.8 hPa | 0 mm | - | 682 W/m² | - |
| 1777927354 | 27.78° C | 35% | 1028 hPa | 0 mm | - | 687 W/m² | - |
| 1777927053 | 27.78° C | 37% | 1027.9 hPa | 0 mm | - | 689 W/m² | - |
| 1777926750 | 27.78° C | 36% | 1028.1 hPa | 0 mm | - | 692 W/m² | - |
| 1777926450 | 27.22° C | 37% | 1028 hPa | 0 mm | - | 694 W/m² | - |
| 1777926147 | 27.78° C | 38% | 1028 hPa | 0 mm | - | 694 W/m² | - |
| 1777925844 | 27.22° C | 37% | 1027.8 hPa | 0 mm | - | 696 W/m² | - |
| 1777925541 | 27.22° C | 36% | 1027.9 hPa | 0 mm | - | 694 W/m² | - |
| 1777925239 | 27.22° C | 34% | 1028 hPa | 0 mm | - | 696 W/m² | - |
| 1777924935 | 26.67° C | 39% | 1028 hPa | 0 mm | - | 699 W/m² | - |
| 1777924631 | 26.67° C | 39% | 1028.2 hPa | 0 mm | - | 697 W/m² | - |
| 1777924327 | 27.22° C | 36% | 1028 hPa | 0 mm | - | 697 W/m² | - |
| 1777924024 | 27.78° C | 36% | 1028 hPa | 0 mm | - | 700 W/m² | - |
| 1777923721 | 26.67° C | 35% | 1028.1 hPa | 0 mm | - | 702 W/m² | - |
| 1777923417 | 27.22° C | 36% | 1028.1 hPa | 0 mm | - | 679 W/m² | - |
| 1777923115 | 27.22° C | 35% | 1028.1 hPa | 0 mm | - | 706 W/m² | - |
* Rain latest hour (hover to see other rain measurements)
** Current wind speed in m/s (hover to see current wind gust speed)